Location: Arroyo de San Miguel
(40.9167°N, 4.6667°W)
Time: 14:13:44
(UTC+00:00)

Cosmos 1605 Rocket - Pass Details

Date: 19 May 2025
Orbit: 944 x 1005 km, 82.9° (Epoch: 17 June)

Event Time Altitude Azimuth Distance (km) Brightness Sun altitude
Rises 23:26:04 0° 355° (N) 3,719 8.3 -28.0°
Reaches altitude 10° 23:28:39 10° 358° (N) 2,759 7.3 -28.1°
Maximum altitude 23:34:56 65° 80° (E) 1,073 4.1 -28.4°
Enters shadow 23:35:18 63° 100° (E) 1,082 4.0 -28.4°
